Lid_Strength_Index
12 14 15 13 13 14 15 16 16 14 12 14 14 14 12 13 14 14 13 13 13 13 11 13 11 11 11 11 11 11 9 9 9 10 10 10 12 11 12 12 11 9 10 10
13 15 11 11 12 13 14 16 16 14 13 14 14 14 13 12 13 12 11 12 12 12 14 14 13 12 12 9 10 11 9 10 9 9 11 11 12 13 13 13 13 12 12 12
14 12 11 11 13 14 15 16 15 14 14 15 16 16 15 13 13 12 11 11 11 11 13 14 13 12 12 10 11 11 9 10 10 12 13 13 13 13 14 14 14 14 13 14
13 12 12 13 14 13 16 13 14 15 16 18 16 19 16 14 13 14 12 12 12 13 13 13 13 13 12 10 11 10 9 10 11 12 12 12 12 13 14 14 15 15 15 15
13 13 13 14 13 12 14 13 14 15 17 18 19 19 17 16 16 14 11 11 13 13 13 13 13 12 12 10 11 10 10 10 12 12 11 12 12 14 15 15 16 16 15 15
13 12 12 12 12 12 12 14 15 17 17 20 17 17 16 16 15 13 12 13 12 13 14 14 13 13 12 10 10 10 10 11 13 12 12 12 14 15 16 16 16 16 16 16
14 13 13 12 14 13 14 15 18 20 21 19 19 19 15 14 14 14 12 13 14 14 15 14 14 13 13 11 10 10 11 13 13 13 13 13 14 14 15 16 16 17 17 17
16 17 14 13 13 14 15 15 18 23 22 20 19 20 17 14 13 13 13 14 13 14 15 15 14 13 13 11 10 11 12 13 13 13 13 14 14 14 15 15 16 16 16 17
17 16 14 14 14 12 16 17 15 18 26 23 19 17 15 14 14 13 13 14 14 14 15 15 14 13 13 11 11 12 12 13 13 13 14 15 14 15 16 16 16 17 17 17
14 17 16 15 14 14 15 14 18 19 24 25 20 19 17 15 13 13 14 14 14 15 16 15 15 14 13 11 11 12 12 13 13 14 14 14 15 16 16 17 17 17 17 17
14 15 17 16 16 16 16 17 17 16 19 22 24 18 15 14 14 14 14 14 14 15 16 15 15 14 13 13 13 13 12 13 14 14 14 15 15 16 16 17 17 17 17 18
13 15 20 17 16 15 15 15 14 16 20 19 20 17 14 14 14 14 13 14 15 15 15 15 15 15 15 15 15 13 13 14 14 14 15 15 16 16 17 17 17 17 18 18
11 14 18 16 15 14 16 15 13 14 16 19 21 17 15 14 14 14 14 14 14 16 16 16 16 16 15 15 15 14 13 13 14 15 15 16 16 17 17 17 18 18 19 19
9 13 15 17 16 15 17 16 14 13 16 17 16 14 13 15 14 13 14 14 15 16 16 17 17 16 15 15 15 15 15 15 15 16 16 16 17 17 17 18 18 19 19 20
10 15 14 13 14 15 15 15 14 15 14 16 14 14 12 11 11 10 11 14 15 16 16 17 16 16 16 16 16 16 16 16 16 16 16 17 17 17 17 18 18 19 19 19
10 15 14 15 14 15 16 15 14 13 13 13 13 14 10 11 10 11 11 12 14 14 15 16 16 16 16 16 16 16 16 16 16 16 16 16 17 17 18 18 19 19 19 19
12 14 15 17 13 14 17 14 13 13 12 12 14 12 10 11 11 11 10 11 13 13 13 15 15 15 15 15 15 16 16 16 16 16 17 17 17 18 18 18 19 19 20 19
13 14 14 17 15 21 14 12 10 12 11 11 11 10 9 10 10 10 10 12 12 12 12 13 14 14 15 15 15 15 16 16 16 17 17 17 17 18 18 19 19 19 19 19
11 13 15 18 18 15 15 15 14 13 13 10 11 10 9 9 12 10 12 11 10 11 11 11 12 13 15 16 15 16 17 17 17 17 17 17 17 18 18 19 19 19 19 19
11 11 14 16 19 20 13 12 13 11 15 10 10 9 10 11 14 10 10 11 12 12 12 12 13 15 16 16 16 17 17 17 17 16 16 16 16 17 18 17 18 18 18 19
15 14 16 16 17 16 16 16 14 16 14 14 11 9 10 12 10 12 13 13 14 14 14 14 15 15 16 16 16 17 17 17 16 16 16 16 16 17 17 17 18 18 18 18
15 16 16 15 17 19 15 14 14 13 16 17 15 14 14 13 12 13 13 13 13 14 15 16 17 18 18 17 16 16 17 16 16 16 16 16 17 16 16 17 17 18 18 18
15 14 16 13 14 13 14 14 12 13 14 14 14 13 13 13 13 14 13 13 13 15 15 17 17 18 18 17 17 17 16 16 16 16 16 15 15 16 16 16 17 17 17 17
12 11 12 12 12 11 12 12 13 12 13 11 12 13 13 13 13 13 15 14 15 18 17 19 18 18 18 18 17 15 15 15 14 14 15 14 15 15 15 15 15 16 17 17
11 11 12 13 12 12 11 11 9 10 12 13 14 12 12 12 14 14 15 16 15 16 18 18 17 18 18 20 20 18 16 14 14 14 14 14 14 14 15 15 15 16 15 15
12 12 12 13 11 11 11 11 11 12 11 12 14 15 15 13 14 15 16 16 17 17 19 19 20 20 20 19 20 20 17 15 15 17 15 14 14 14 15 15 17 12 12 11